Regional Weather Roundup
Issued by NWS Jackson, KY

Home | Current Version | Previous Version | Graphics & Text | Print | Product List | Glossary On
Versions: 1 2 3 4 5 6 7 8 9 10 11 12 13 14 15 16 17 18 19 20 21 22 23 24 25 26 27 28 29 30 31 32 33 34 35 36 37 38 39 40 41 42 43 44 45 46 47 48 49 50
000
ASUS43 KJKL 011210
RWRJKL

EAST KENTUCKY HOURLY WEATHER ROUNDUP
NATIONAL WEATHER SERVICE JACKSON KY
800 AM EDT WED APR 01 2015

NOTE: "FAIR" INDICATES FEW OR NO CLOUDS BELOW 12,000 FEET WITH
NO SIGNIFICANT WEATHER AND/OR OBSTRUCTIONS TO VISIBILITY.

* THESE REPORTS ARE NOT UNDER NWS QUALITY CONTROL AND MAY NOT
  REPORT WEATHER SUCH AS PRECIPITATION AND FOG.

KYZ079-080-083-085-087-088-110-112-115-119-120-011300
...EASTERN KENTUCKY...

CITY           SKY/WX    TMP DP  RH WIND       PRES   REMARKS
JACKSON        CLEAR     38  32  79 NE3       30.10R
6HR MIN TEMP:  38; 6HR MAX TEMP:  46;

LONDON         CLEAR     40  33  76 CALM      30.10R
6HR MIN TEMP:  39; 6HR MAX TEMP:  51;

SOMERSET*      CLEAR     36  32  87 CALM      30.12R
MONTICELLO*    CLEAR     33  30  89 CALM      30.13R
6HR MIN TEMP:  31; 6HR MAX TEMP:  49;

MIDDLESBORO*   CLEAR     37  34  89 CALM      30.10R
6HR MIN TEMP:  36; 6HR MAX TEMP:  54;

HAZARD APT*    SUNNY     37  36  93 CALM      30.11R
BLACK MTN*       N/A     34  28  80 N3          N/A
PIKEVILLE APT* CLEAR     39  32  75 CALM      30.10R
BIG SANDY*     SUNNY     37  33  85 CALM      30.11R
6HR MIN TEMP:  34; 6HR MAX TEMP:  45;

MOREHEAD APT*  SUNNY     37  32  81 CALM      30.13R
$$

KYZ035-036-041-042-044-050-067-078-099-011300
...CENTRAL KENTUCKY...

CITY           SKY/WX    TMP DP  RH WIND       PRES   REMARKS
MT STERLING*   CLEAR     34  32  93 SE5       30.13R WCI  30
FLEMING/MASON* CLEAR     34  32  93 SE3       30.13R
DANVILLE*      CLEAR     34  34 100 CALM      30.12R FOG
RICHMOND*      CLEAR     36  34  93 CALM      30.10R
LEXINGTON      CLEAR     35  32  88 CALM      30.11R FOG
6HR MIN TEMP:  34; 6HR MAX TEMP:  44;

FRANKFORT      CLEAR     34  31  88 CALM      30.11R
6HR MIN TEMP:  31; 6HR MAX TEMP:  47;

$$

KYZ091>093-OHZ055-061-077-WVZ005-015-034-035-042-011300
...SOUTHERN OHIO/WEST VIRGINIA...

CITY           SKY/WX    TMP DP  RH WIND       PRES   REMARKS
COVINGTON      CLEAR     34  31  88 S5        30.10R WCI  30
COLUMBUS       CLEAR     31  29  92 E5        30.10R WCI  26
DAYTON         CLEAR     36  32  85 S10       30.09R WCI  28
WILMINGTON     CLEAR     32  29  88 S6        30.09R WCI  26
HUNTINGTON     CLEAR     33  31  92 E3        30.12R
CHARLESTON     CLEAR     33  31  92 CALM      30.12R
PINEVILLE*     CLEAR     32  32 100 MISG      30.15R
BECKLEY        CLEAR     32  29  88 S5        30.07R WCI  27
BLUEFIELD      CLEAR     38  30  73 W3        30.07R
$$

VAZ002-007-008-TNZ017-027-036-066-071-011300
...SOUTHWEST VIRGINIA/EAST TENNESSEE...

CITY           SKY/WX    TMP DP  RH WIND       PRES   REMARKS
WISE*          CLEAR     36  36 100 CALM      30.08R
JONESVILLE*    SUNNY     37  32  81 CALM      30.11R
ABINGDON*      CLEAR     39  33  81 CALM      30.08R
BRISTOL        CLEAR     44  36  73 CALM      30.09R
KNOXVILLE      PTCLDY    50  33  52 E3        30.07R
OAK RIDGE      CLEAR     48  35  60 CALM      30.08R
CROSSVILLE     CLEAR     44  31  60 CALM      30.09R
NASHVILLE      PTCLDY    50  35  56 NE6       30.08R
$$

...KEY TO REMARKS...
VSB - VISIBILITY IN MILES
WCI - WIND CHILL INDEX
HX  - HEAT INDEX

$$


USA.gov is the U.S. government's official web portal to all federal, state and local government web resources and services.